sat.trackr.live / text

‹ back to catalog

STARLINK-30248

NORAD 57610 · 2023-119J

PAYLOAD ACTIVE UNKNOWN

§ Identity

Operator
Country
US
Launch date
2023-08-11
Launch site
AFETR
Launch vehicle
Mass (kg)
RCS (m²)

Purposes: comms

External: N2YO · Heavens-Above · Gunter

§ Orbital elements

Epoch: 2026-09-19T18:36:25.449120Z

Period
94.27 min
Inclination
43.0036°
Eccentricity
0.0001645
Mean motion
15.27564215 rev/d
Perigee alt
482.0 km
Apogee alt
484.2 km
Semi-major
6,861.2 km
B*
-5.7297e-5
RAAN
65.1123°
Arg perigee
264.9649°
Mean anomaly
95.1015°
Rev number
17,277

§ Raw data

STARLINK-302481 57610U 23119J   26262.77529455 -.00001838  00000+0 -57297-4 0  99922 57610  43.0036  65.1123 0001645 264.9649  95.1015 15.27564215172774

JSON: /api/v1/satellites/57610 · /tle

For live sub-satellite position, see the globe view (requires WebGL).

§ Visibility from observer

Set your observer location to see the next 7 days of passes ≥ 10°. The values pass through the URL so the page stays shareable.

No JS? Fill the form by hand. The geolocation button needs JavaScript.